Flight Track Log - Related Links

Times and Time Zones

All times are in EDT time to prevent confusion due to time zone crossing. See the DAL3678 flight status page for this flight to view local times or setup timezone preferences in your user account.

Time Position Orientation Groundspeed Altitude Reporting Facility
EDT Latitude Longitude Course Direction KTS MPH feet Rate Location/Type
Wed 03:58:26 PM 42.9500 -87.8833 78° East 147 169 1,600  Level KMKE
Wed 03:59:14 PM 42.9500 -87.8333 90° East 170 196 3,100 1,771 Climbing KMKE
Wed 04:00:11 PM 42.9522 -87.7714 87° East 187 215 4,700 1,831 Climbing Chicago Center
Wed 04:01:00 PM 42.9900 -87.4604 83° East  Level FlightAware Approximate
Wed 04:01:12 PM 42.9608 -87.6697 83° East 255 293 6,700  Level Chicago Center
Wed 04:02:00 PM 42.9997 -87.3533 83° East  Level FlightAware Approximate
Wed 04:02:13 PM 42.9667 -87.5578 86° East 289 333 9,400  Level Chicago Center
Wed 04:03:00 PM 43.0158 -87.2477 78° East  Level FlightAware Approximate
Wed 04:03:15 PM 42.9814 -87.4269 81° East 301 346 11,900  Level Chicago Center
Wed 04:04:16 PM 42.9972 -87.3164 79° East 336 387 13,200 1,463 Climbing Chicago Center
Wed 04:05:18 PM 43.0142 -87.1794 80° East 363 418 14,900 1,707 Climbing Chicago Center
Wed 04:06:19 PM 43.0353 -87.0114 80° East 376 433 16,700 1,463 Climbing Chicago Center
Wed 04:07:21 PM 43.0531 -86.8658 80° East 386 444 17,900 1,171 Climbing Chicago Center
Wed 04:08:22 PM 43.0717 -86.7167 80° East 398 458 19,100 1,122 Climbing Chicago Center
Wed 04:09:24 PM 43.0917 -86.5617 80° East 412 474 20,200 927 Climbing Chicago Center
Wed 04:10:25 PM 43.1106 -86.4044 81° East 416 479 21,000 829 Climbing Chicago Center
Wed 04:11:27 PM 43.1300 -86.2411 81° East 430 495 21,900 968 Climbing Chicago Center
Wed 04:12:29 PM 43.1503 -86.0828 80° East 420 483 23,000 537 Climbing Chicago Center
Wed 04:13:30 PM 43.1694 -85.9147 81° East 431 496 23,000  Level Chicago Center
Wed 04:14:32 PM 43.1892 -85.7439 81° East 444 511 23,000  Level Chicago Center
Wed 04:15:33 PM 43.2083 -85.5714 81° East 452 520 23,000  Level Chicago Center
Wed 04:16:35 PM 43.2281 -85.3989 81° East 457 526 23,000  Level Chicago Center
Wed 04:16:51 PM 43.2361 -85.3228 82° East 445 512 23,000  Level Cleveland Center
Wed 04:17:51 PM 43.2347 -85.1544 91° East 445 512 23,000  Level Cleveland Center
Wed 04:18:51 PM 43.2033 -84.9925 105° East 431 496 23,000  Level Cleveland Center
Wed 04:19:51 PM 43.1722 -84.8253 104° East 442 509 23,000  Level Cleveland Center
Wed 04:20:51 PM 43.1408 -84.6550 104° East 448 516 23,000  Level Cleveland Center
Wed 04:21:51 PM 43.1086 -84.4967 106° East 442 509 23,000 -750 Level Cleveland Center
Wed 04:22:51 PM 43.0722 -84.3408 108° East 442 509 21,500 -1,750 Descending Cleveland Center
Wed 04:23:51 PM 43.0239 -84.2214 119° Southeast 416 479 19,500 -1,900 Descending Cleveland Center
Wed 04:24:51 PM 42.9700 -84.0792 117° Southeast 411 473 17,700 -2,176 Descending Cleveland Center
Wed 04:25:22 PM 42.9411 -83.9981 116° Southeast 398 458 16,200 -2,300 Descending Cleveland Center
Wed 04:25:51 PM 42.9194 -83.9514 122° Southeast 400 460 15,400 -2,449 Descending Cleveland Center
Wed 04:26:11 PM 42.8961 -83.8936 119° Southeast 370 426 14,200 -2,300 Descending Cleveland Center
Wed 04:26:51 PM 42.8711 -83.8269 117° Southeast 388 447 13,100 -2,066 Descending Cleveland Center
Wed 04:27:12 PM 42.8497 -83.7722 118° Southeast 363 418 12,100 -1,100 Descending Cleveland Center
Wed 04:27:51 PM 42.8133 -83.7278 138° Southeast 363 418 12,000 -197 Descending Cleveland Center
Wed 04:28:13 PM 42.7722 -83.7003 154° Southeast 322 371 11,900  Descending Cleveland Center
Wed 04:28:51 PM 42.7314 -83.6756 156° South 331 381 12,000  Climbing Cleveland Center
Wed 04:29:15 PM 42.6903 -83.6508 156° South 329 379 11,900 -100 Descending Cleveland Center
Wed 04:29:51 PM 42.6375 -83.6175 155° Southeast 334 384 11,900  Level FAA TRACON SMA TRACON (SMA)
Wed 04:30:10 PM 42.6108 -83.6017 156° South 336 387 11,900 -308 Level FAA TRACON SMA TRACON (SMA)
Wed 04:30:30 PM 42.5842 -83.5861 157° South 336 387 11,700 -585 Descending FAA TRACON SMA TRACON (SMA)
Wed 04:30:51 PM 42.5608 -83.5742 159° South 330 380 11,500 -1,021 Descending Cleveland Center
Wed 04:31:17 PM 42.5117 -83.5492 159° South 339 390 10,900 -500 Descending Cleveland Center
Wed 04:31:51 PM 42.4747 -83.5250 154° Southeast 335 386 11,000 98 Climbing Cleveland Center
Wed 04:32:18 PM 42.4336 -83.5006 156° South 288 331 11,000  Level Cleveland Center
Wed 04:32:51 PM 42.3986 -83.4822 159° South 321 369 11,000  Level Cleveland Center
Wed 04:33:34 PM 42.3553 -83.4517 152° Southeast 240 276 11,000  Level FAA TRACON SMA TRACON (SMA)
Wed 04:33:54 PM 42.3300 -83.4419 164° South 243 280 11,000  Level FAA TRACON SMA TRACON (SMA)
Wed 04:34:11 PM 42.3131 -83.4339 161° South 243 280 11,000 -324 Level FAA TRACON SMA TRACON (SMA)
Wed 04:34:31 PM 42.2897 -83.4275 169° South 241 277 10,800 -900 Descending FAA TRACON SMA TRACON (SMA)
Wed 04:34:51 PM 42.2703 -83.4339 194° South 233 268 10,400 -1,200 Descending FAA TRACON SMA TRACON (SMA)
Wed 04:35:11 PM 42.2528 -83.4461 207° Southwest 230 265 10,000 -1,350 Descending FAA TRACON SMA TRACON (SMA)
Wed 04:35:31 PM 42.2311 -83.4617 208° Southwest 234 269 9,500 -1,385 Descending FAA TRACON SMA TRACON (SMA)
Wed 04:35:50 PM 42.2139 -83.4747 209° Southwest 229 264 9,100 -1,385 Descending FAA TRACON SMA TRACON (SMA)
Wed 04:36:10 PM 42.1972 -83.4881 211° Southwest 227 261 8,600 -1,500 Descending FAA TRACON SMA TRACON (SMA)
Wed 04:36:30 PM 42.1772 -83.5042 211° Southwest 221 254 8,100 -878 Descending FAA TRACON SMA TRACON (SMA)
Wed 04:36:51 PM 42.1614 -83.5175 212° Southwest 219 252 8,000 -146 Descending FAA TRACON SMA TRACON (SMA)
Wed 04:37:11 PM 42.1456 -83.5306 211° Southwest 218 251 8,000  Level FAA TRACON SMA TRACON (SMA)
Wed 04:37:31 PM 42.1258 -83.5472 212° Southwest 218 251 8,000  Level FAA TRACON SMA TRACON (SMA)
Wed 04:37:51 PM 42.1100 -83.5611 213° Southwest 218 251 8,000  Level FAA TRACON SMA TRACON (SMA)
Wed 04:38:11 PM 42.0906 -83.5781 213° Southwest 218 251 8,000 -450 Level FAA TRACON SMA TRACON (SMA)
Wed 04:38:31 PM 42.0750 -83.5922 214° Southwest 219 252 7,700 -900 Descending FAA TRACON SMA TRACON (SMA)
Wed 04:38:51 PM 42.0597 -83.6061 214° Southwest 217 250 7,400 -1,350 Descending FAA TRACON SMA TRACON (SMA)
Wed 04:39:11 PM 42.0411 -83.6231 214° Southwest 212 244 6,800 -1,500 Descending FAA TRACON SMA TRACON (SMA)
Wed 04:39:31 PM 42.0250 -83.6319 202° Southwest 208 239 6,400 -1,350 Descending FAA TRACON SMA TRACON (SMA)
Wed 04:39:51 PM 42.0089 -83.6231 158° South 218 251 5,900 -1,200 Descending FAA TRACON SMA TRACON (SMA)
Wed 04:40:11 PM 41.9975 -83.5975 121° Southeast 203 234 5,600 -750 Descending FAA TRACON SMA TRACON (SMA)
Wed 04:40:31 PM 41.9914 -83.5808 116° Southeast 185 213 5,400 -750 Descending FAA TRACON SMA TRACON (SMA)
Wed 04:40:51 PM 41.9911 -83.5539 91° East 197 227 5,100 -600 Descending FAA TRACON SMA TRACON (SMA)
Wed 04:41:11 PM 42.0011 -83.5342 56° Northeast 200 230 5,000 -150 Descending FAA TRACON SMA TRACON (SMA)
Wed 04:41:31 PM 42.0167 -83.5186 37° Northeast 205 236 5,000  Level FAA TRACON SMA TRACON (SMA)

Login

Don't have an account? Register now (free) for customized features, flight alerts, and more!